COSMOS 2491 DEB, 44912

Orbit data source: Space-Track

COSMOS 2491 DEB, 44912 is space debris in LEO originally from a launch on Wed, 25 Dec 2013 UTC launched from the Plesetsk Missile And Space Complex (PKMTR). Debris objects in space refer to the collection of defunct objects orbiting the Earth. Examples of debris include non-operational satellites, rocket bodies, and fragments generated from explosions, collisions, or faulty payload assembly.

Loading next visibility...
Identifier
44912, 2013-076F
Orbit
LEO
Country
Flag of CISCIS
Related business
Manufacturer
TsNIIKhM
Mission
Spacecraft
Bus & Motor
Unknown
Mass
Unknown
Launch date (UTC)
2013-12-25 (12 years ago)
Launch vehicle
Unknown
Launch site
Plesetsk Missile And Space Complex (PKMTR)
Object type
Payload
Rocket body
Debris
Shape & HBR
Unknown shape, 0.1 m
Radar Cross Section
Small (<0.1 m²)

Expand to show TLE details & history
Last TLE update: 3 days ago

TLE from 3 days ago
0 COSMOS 2491 DEB
1 44912U 13076F   26170.52966634  .00006664  00000-0  27751-1 0  9999
2 44912  82.4265 103.1198 0189856  85.5462 276.7300 12.78329074298196
Epoch: 2026-06-19T12:42Z
TLE epoch observation values (Epoch: 2026-06-19T12:42:43.171Z)
Latitude
-0.00009°
Longitude
4.68258°
Altitude
1,336.508 km
Speed
7.196 km/s
True Right ascension
06h 52m 28s
True Declination
0° 00' 00"
Sunlit
Object was in daylight at epoch
Visualization orbit readout
Latitude
Unknown
Longitude
Unknown
Altitude
Unknown
Speed
Unknown
Apparent Right ascension
Unknown
Apparent Declination
Unknown
Sunlit
N/A
Visualization observer readout
Local Sidereal Time
21:35:07
Azimuth
Unknown
Elevation
Unknown
Doppler factor
Unknown
Orbital elements
Apogee altitude
1,492.136 km
Perigee altitude
1,198.86 km
Semi-major axis
7,723.635 km
Eccentricity
0.01899
Inclination
82.4265°
RAAN
103.1198°
Arg. of periapsis
85.5462°
True anomaly
274.56389°
Mean anomaly
276.73°
Eccentric anomaly
275.64749°
Mean motion
3.1975 °/min
Orbital period
112.59 mins
BSTAR
0.027751
Loading maneuver chart data...
Computing Atmospheric mass density...
Loading historical data...
Loading historical data...
Loading historical data...
Loading historical data...
Loading historical data...
Loading historical data...
Loading historical data...

Documentation

Showing up to 5 results
|